TimeAKST,TemperatureF,Dew PointF,Humidity,Sea Level PressureIn,VisibilityMPH,Wind Direction,Wind SpeedMPH,Gust SpeedMPH,PrecipitationIn,Events,Conditions,WindDirDegrees,DateUTC
12:53 AM,21.0,6.1,53,30.52,10.0,North,19.6,25.3,N/A,,Clear,360,2013-12-02 09:53:00
1:53 AM,21.0,7.0,55,30.52,10.0,North,19.6,29.9,N/A,,Clear,360,2013-12-02 10:53:00
3:53 AM,19.9,9.0,62,30.53,10.0,North,15.0,23.0,N/A,,Clear,10,2013-12-02 12:53:00
4:53 AM,19.9,8.1,60,30.54,10.0,North,15.0,-,N/A,,Clear,360,2013-12-02 13:53:00
5:53 AM,19.9,9.0,62,30.54,10.0,North,11.5,-,N/A,,Clear,360,2013-12-02 14:53:00
6:53 AM,19.0,9.0,65,30.56,10.0,North,12.7,-,N/A,,Clear,360,2013-12-02 15:53:00
7:53 AM,18.0,7.0,62,30.58,10.0,North,10.4,-,N/A,,Clear,350,2013-12-02 16:53:00
8:53 AM,19.0,8.1,62,30.60,10.0,NNW,10.4,-,N/A,,Clear,340,2013-12-02 17:53:00
9:53 AM,19.0,10.9,71,30.62,10.0,North,10.4,-,N/A,,Clear,350,2013-12-02 18:53:00
10:53 AM,19.0,9.0,65,30.62,10.0,NNW,8.1,-,N/A,,Clear,340,2013-12-02 19:53:00
11:53 AM,19.9,9.0,62,30.63,10.0,North,9.2,-,N/A,,Clear,350,2013-12-02 20:53:00
12:53 PM,21.9,10.9,63,30.64,10.0,NNW,12.7,-,N/A,,Clear,340,2013-12-02 21:53:00
1:53 PM,25.0,12.0,58,30.66,10.0,NNW,8.1,-,N/A,,Clear,340,2013-12-02 22:53:00
2:53 PM,23.0,12.0,63,30.65,10.0,NNW,9.2,-,N/A,,Clear,340,2013-12-02 23:53:00
3:53 PM,21.0,10.9,65,30.65,10.0,NNW,3.5,-,N/A,,Clear,330,2013-12-03 00:53:00
4:53 PM,17.1,12.9,84,30.66,10.0,North,6.9,-,N/A,,Clear,350,2013-12-03 01:53:00
5:53 PM,16.0,10.9,81,30.68,10.0,North,5.8,-,N/A,,Clear,360,2013-12-03 02:53:00
6:53 PM,17.1,12.0,81,30.69,10.0,North,6.9,-,N/A,,Clear,350,2013-12-03 03:53:00
7:53 PM,18.0,14.0,84,30.69,10.0,North,8.1,-,N/A,,Clear,350,2013-12-03 04:53:00
8:53 PM,19.0,14.0,81,30.69,10.0,NNW,5.8,-,N/A,,Clear,340,2013-12-03 05:53:00
9:53 PM,17.1,12.9,84,30.70,10.0,NNW,6.9,-,N/A,,Clear,340,2013-12-03 06:53:00
10:53 PM,17.1,14.0,88,30.72,10.0,North,8.1,-,N/A,,Clear,350,2013-12-03 07:53:00
11:53 PM,17.1,10.9,77,30.71,10.0,North,6.9,-,N/A,,Clear,350,2013-12-03 08:53:00